Time,TemperatureF,DewpointF,PressureIn,WindDirection,WindDirectionDegrees,WindSpeedMPH,WindSpeedGustMPH,Humidity,HourlyPrecipIn,Conditions,Clouds,dailyrainin,SoftwareType,DateUTC
2013-08-08 00:02:00,67.0,63.0,30.01,East,93,0.0,1.0,88,0.00,,,0.00,,2013-08-08 05:02:00,
2013-08-08 00:11:00,67.0,64.0,30.01,East,96,0.0,1.0,89,0.00,,,0.00,,2013-08-08 05:11:00,
2013-08-08 00:22:00,67.0,64.0,30.01,East,96,0.0,1.0,90,0.00,,,0.00,,2013-08-08 05:22:00,
2013-08-08 00:33:00,66.0,63.0,30.01,East,96,0.0,1.0,90,0.00,,,0.00,,2013-08-08 05:33:00,
2013-08-08 00:43:00,66.0,63.0,30.01,East,96,0.0,1.0,91,0.00,,,0.00,,2013-08-08 05:43:00,
2013-08-08 00:52:00,66.0,63.0,30.01,East,96,0.0,2.0,91,0.00,,,0.00,,2013-08-08 05:52:00,
2013-08-08 01:01:00,66.0,63.0,30.01,East,96,0.0,1.0,91,0.00,,,0.00,,2013-08-08 06:01:00,
2013-08-08 01:11:00,66.0,63.0,30.01,East,96,0.0,1.0,91,0.00,,,0.00,,2013-08-08 06:11:00,
2013-08-08 01:21:00,66.0,63.0,30.01,East,96,0.0,2.0,91,0.00,,,0.00,,2013-08-08 06:21:00,
2013-08-08 01:32:00,66.0,63.0,30.01,East,96,0.0,1.0,90,0.00,,,0.00,,2013-08-08 06:32:00,
2013-08-08 01:43:00,65.0,62.0,30.00,East,96,0.0,1.0,91,0.00,,,0.00,,2013-08-08 06:43:00,
2013-08-08 01:52:00,65.0,62.0,30.00,East,96,0.0,1.0,91,0.00,,,0.00,,2013-08-08 06:52:00,
2013-08-08 02:01:00,65.0,62.0,30.00,East,96,0.0,1.0,91,0.00,,,0.00,,2013-08-08 07:01:00,
2013-08-08 02:12:00,64.0,62.0,30.00,East,96,0.0,1.0,92,0.00,,,0.00,,2013-08-08 07:12:00,
2013-08-08 02:22:00,64.0,62.0,30.00,East,96,0.0,0.0,92,0.00,,,0.00,,2013-08-08 07:22:00,
2013-08-08 02:32:00,64.0,62.0,30.00,East,96,0.0,1.0,92,0.00,,,0.00,,2013-08-08 07:32:00,
2013-08-08 02:43:00,64.0,62.0,29.99,East,96,0.0,1.0,92,0.00,,,0.00,,2013-08-08 07:43:00,
2013-08-08 02:53:00,64.0,62.0,29.99,East,95,1.0,2.0,92,0.00,,,0.00,,2013-08-08 07:53:00,
2013-08-08 03:02:00,64.0,62.0,29.99,East,94,1.0,3.0,92,0.00,,,0.00,,2013-08-08 08:02:00,
2013-08-08 03:11:00,64.0,62.0,29.98,East,82,1.0,3.0,92,0.00,,,0.00,,2013-08-08 08:11:00,
2013-08-08 03:22:00,65.0,62.0,29.98,East,91,1.0,2.0,91,0.00,,,0.00,,2013-08-08 08:22:00,
2013-08-08 03:32:00,65.0,62.0,29.98,East,100,1.0,2.0,91,0.00,,,0.00,,2013-08-08 08:32:00,
2013-08-08 03:43:00,65.0,62.0,29.97,East,81,0.0,3.0,91,0.00,,,0.00,,2013-08-08 08:43:00,
2013-08-08 03:52:00,64.0,61.0,29.96,East,81,1.0,2.0,91,0.00,,,0.00,,2013-08-08 08:52:00,
2013-08-08 04:01:00,64.0,62.0,29.95,East,80,2.0,4.0,92,0.00,,,0.00,,2013-08-08 09:01:00,
2013-08-08 04:12:00,65.0,62.0,29.95,East,81,3.0,5.0,91,0.00,,,0.00,,2013-08-08 09:12:00,
2013-08-08 04:22:00,65.0,62.0,29.96,East,94,2.0,6.0,91,0.00,,,0.00,,2013-08-08 09:22:00,
2013-08-08 04:32:00,65.0,62.0,29.96,East,94,1.0,5.0,90,0.00,,,0.00,,2013-08-08 09:32:00,
2013-08-08 04:43:00,65.0,62.0,29.97,SE,126,1.0,3.0,90,0.00,,,0.00,,2013-08-08 09:43:00,
2013-08-08 04:53:00,65.0,62.0,29.97,East,79,2.0,4.0,90,0.00,,,0.00,,2013-08-08 09:53:00,
2013-08-08 05:01:00,65.0,62.0,29.97,ESE,103,2.0,6.0,90,0.00,,,0.00,,2013-08-08 10:01:00,
2013-08-08 05:11:00,65.0,62.0,29.97,ESE,106,2.0,6.0,90,0.00,,,0.00,,2013-08-08 10:11:00,
2013-08-08 05:22:00,66.0,63.0,29.97,East,96,2.0,8.0,90,0.00,,,0.00,,2013-08-08 10:22:00,
2013-08-08 05:32:00,66.0,63.0,29.97,East,93,5.0,8.0,90,0.00,,,0.00,,2013-08-08 10:32:00,
2013-08-08 05:43:00,66.0,63.0,29.98,East,100,6.0,9.0,90,0.00,,,0.00,,2013-08-08 10:43:00,
2013-08-08 05:52:00,66.0,63.0,29.98,East,98,3.0,7.0,90,0.00,,,0.00,,2013-08-08 10:52:00,
2013-08-08 06:01:00,66.0,63.0,29.98,ESE,118,3.0,5.0,90,0.00,,,0.00,,2013-08-08 11:01:00,
2013-08-08 06:11:00,65.0,62.0,29.98,East,100,3.0,5.0,91,0.00,,,0.00,,2013-08-08 11:11:00,
2013-08-08 06:21:00,65.0,62.0,29.98,East,98,3.0,6.0,91,0.00,,,0.00,,2013-08-08 11:21:00,
2013-08-08 06:32:00,65.0,62.0,29.98,East,88,2.0,7.0,91,0.00,,,0.00,,2013-08-08 11:32:00,
2013-08-08 06:43:00,65.0,63.0,29.99,ESE,103,3.0,7.0,92,0.00,,,0.00,,2013-08-08 11:43:00,
2013-08-08 06:52:00,65.0,63.0,30.00,ESE,111,1.0,6.0,92,0.00,,,0.00,,2013-08-08 11:52:00,
2013-08-08 07:01:00,65.0,63.0,30.00,ESE,114,0.0,3.0,92,0.00,,,0.00,,2013-08-08 12:01:00,
2013-08-08 07:11:00,65.0,63.0,30.01,ESE,111,3.0,4.0,93,0.00,,,0.00,,2013-08-08 12:11:00,
2013-08-08 07:21:00,65.0,63.0,30.01,SE,128,1.0,7.0,93,0.00,,,0.00,,2013-08-08 12:21:00,
2013-08-08 07:32:00,65.0,63.0,30.02,SSE,152,2.0,4.0,93,0.00,,,0.00,,2013-08-08 12:32:00,
2013-08-08 07:43:00,65.0,63.0,30.01,SE,127,2.0,4.0,94,0.00,,,0.00,,2013-08-08 12:43:00,
2013-08-08 07:52:00,66.0,64.0,30.01,ESE,116,3.0,6.0,93,0.00,,,0.00,,2013-08-08 12:52:00,
2013-08-08 08:01:00,66.0,64.0,30.00,SSE,166,3.0,7.0,93,0.00,,,0.00,,2013-08-08 13:01:00,
2013-08-08 08:11:00,66.0,64.0,29.99,East,96,4.0,8.0,93,0.00,,,0.00,,2013-08-08 13:11:00,
2013-08-08 08:22:00,66.0,64.0,29.99,East,85,4.0,7.0,93,0.00,,,0.00,,2013-08-08 13:22:00,
2013-08-08 08:32:00,66.0,64.0,29.98,ESE,112,5.0,9.0,93,0.00,,,0.00,,2013-08-08 13:32:00,
2013-08-08 08:43:00,67.0,65.0,29.98,East,99,5.0,8.0,93,0.00,,,0.00,,2013-08-08 13:43:00,
2013-08-08 08:52:00,67.0,65.0,29.98,East,100,4.0,9.0,93,0.00,,,0.00,,2013-08-08 13:52:00,
2013-08-08 09:02:00,67.0,65.0,29.98,East,90,4.0,9.0,92,0.00,,,0.00,,2013-08-08 14:02:00,
2013-08-08 09:11:00,67.0,65.0,29.99,East,95,1.0,7.0,92,0.00,,,0.00,,2013-08-08 14:11:00,
2013-08-08 09:22:00,67.0,65.0,30.00,East,91,2.0,3.0,92,0.00,,,0.00,,2013-08-08 14:22:00,
2013-08-08 09:32:00,67.0,65.0,30.00,East,101,1.0,3.0,92,0.00,,,0.00,,2013-08-08 14:32:00,
2013-08-08 09:43:00,68.0,66.0,30.00,East,98,1.0,3.0,92,0.00,,,0.00,,2013-08-08 14:43:00,
2013-08-08 09:53:00,68.0,66.0,30.00,East,92,1.0,3.0,92,0.00,,,0.00,,2013-08-08 14:53:00,
2013-08-08 10:02:00,68.0,65.0,29.99,SE,142,1.0,5.0,91,0.00,,,0.00,,2013-08-08 15:02:00,
2013-08-08 10:11:00,68.0,66.0,29.99,East,92,0.0,5.0,92,0.00,,,0.00,,2013-08-08 15:11:00,
2013-08-08 10:22:00,68.0,65.0,29.99,ESE,110,1.0,5.0,91,0.00,,,0.00,,2013-08-08 15:22:00,
2013-08-08 10:32:00,68.0,66.0,29.98,ESE,107,1.0,4.0,92,0.00,,,0.00,,2013-08-08 15:32:00,
2013-08-08 10:43:00,68.0,65.0,29.99,ESE,120,1.0,3.0,91,0.00,,,0.00,,2013-08-08 15:43:00,
2013-08-08 10:52:00,69.0,66.0,30.00,ESE,119,1.0,2.0,91,0.00,,,0.00,,2013-08-08 15:52:00,
2013-08-08 11:01:00,69.0,66.0,30.00,ESE,115,3.0,5.0,91,0.00,,,0.00,,2013-08-08 16:01:00,
2013-08-08 11:11:00,69.0,67.0,30.00,ESE,113,2.0,7.0,92,0.00,,,0.00,,2013-08-08 16:11:00,
2013-08-08 11:22:00,69.0,66.0,30.01,ENE,59,3.0,5.0,91,0.00,,,0.00,,2013-08-08 16:22:00,
2013-08-08 11:32:00,69.0,66.0,30.02,East,87,2.0,4.0,91,0.00,,,0.00,,2013-08-08 16:32:00,
2013-08-08 11:42:00,70.0,67.0,30.02,East,79,2.0,5.0,91,0.00,,,0.00,,2013-08-08 16:42:00,
2013-08-08 11:52:00,70.0,67.0,30.03,SE,124,1.0,6.0,90,0.00,,,0.00,,2013-08-08 16:52:00,
2013-08-08 12:01:00,70.0,67.0,30.03,NNE,20,1.0,4.0,90,0.00,,,0.00,,2013-08-08 17:01:00,
2013-08-08 12:11:00,70.0,67.0,30.03,East,95,2.0,3.0,89,0.00,,,0.00,,2013-08-08 17:11:00,
2013-08-08 12:21:00,71.0,68.0,30.03,ESE,111,1.0,2.0,90,0.00,,,0.00,,2013-08-08 17:21:00,
2013-08-08 12:32:00,71.0,68.0,30.03,ESE,103,1.0,4.0,89,0.00,,,0.00,,2013-08-08 17:32:00,
2013-08-08 12:43:00,71.0,68.0,30.03,East,92,0.0,5.0,89,0.00,,,0.00,,2013-08-08 17:43:00,
2013-08-08 12:52:00,71.0,67.0,30.03,East,85,2.0,4.0,88,0.00,,,0.00,,2013-08-08 17:52:00,
2013-08-08 13:01:00,71.0,67.0,30.03,ESE,109,2.0,4.0,88,0.01,,,0.01,,2013-08-08 18:01:00,
2013-08-08 13:11:00,71.0,68.0,30.03,East,94,2.0,5.0,89,0.01,,,0.01,,2013-08-08 18:11:00,
2013-08-08 13:22:00,72.0,69.0,30.03,East,101,1.0,3.0,89,0.01,,,0.01,,2013-08-08 18:22:00,
2013-08-08 13:32:00,72.0,68.0,30.03,ENE,75,2.0,4.0,88,0.01,,,0.01,,2013-08-08 18:32:00,
2013-08-08 13:43:00,73.0,69.0,30.03,ENE,78,1.0,6.0,88,0.01,,,0.01,,2013-08-08 18:43:00,
2013-08-08 13:52:00,74.0,69.0,30.03,ESE,121,1.0,5.0,85,0.01,,,0.01,,2013-08-08 18:52:00,
2013-08-08 14:01:00,75.0,69.0,30.03,NE,41,3.0,6.0,82,0.00,,,0.01,,2013-08-08 19:01:00,
2013-08-08 14:11:00,75.0,69.0,30.04,ESE,118,2.0,7.0,83,0.00,,,0.01,,2013-08-08 19:11:00,
2013-08-08 14:22:00,75.0,69.0,30.03,ENE,69,0.0,5.0,81,0.00,,,0.01,,2013-08-08 19:22:00,
2013-08-08 14:32:00,74.0,68.0,30.03,East,86,1.0,5.0,82,0.00,,,0.01,,2013-08-08 19:32:00,
2013-08-08 14:43:00,74.0,68.0,30.03,ENE,61,0.0,3.0,83,0.00,,,0.01,,2013-08-08 19:43:00,
2013-08-08 14:53:00,74.0,68.0,30.03,ESE,104,3.0,6.0,82,0.00,,,0.01,,2013-08-08 19:53:00,
2013-08-08 15:02:00,74.0,69.0,30.03,NNE,12,0.0,4.0,84,0.00,,,0.01,,2013-08-08 20:02:00,
2013-08-08 15:11:00,74.0,68.0,30.03,ENE,68,2.0,5.0,83,0.00,,,0.01,,2013-08-08 20:11:00,
2013-08-08 15:22:00,73.0,68.0,30.03,ENE,76,1.0,4.0,84,0.00,,,0.01,,2013-08-08 20:22:00,
2013-08-08 15:32:00,74.0,69.0,30.03,NNE,30,1.0,4.0,84,0.00,,,0.01,,2013-08-08 20:32:00,
2013-08-08 15:42:00,73.0,68.0,30.03,NNE,31,2.0,4.0,83,0.00,,,0.01,,2013-08-08 20:42:00,
2013-08-08 15:52:00,73.0,68.0,30.04,ENE,68,1.0,5.0,85,0.00,,,0.01,,2013-08-08 20:52:00,
2013-08-08 16:01:00,72.0,68.0,30.04,ENE,58,1.0,4.0,86,0.00,,,0.01,,2013-08-08 21:01:00,
2013-08-08 16:12:00,73.0,69.0,30.04,North,5,1.0,4.0,87,0.00,,,0.01,,2013-08-08 21:12:00,
2013-08-08 16:33:00,74.0,69.0,30.03,NNE,23,2.0,8.0,84,0.00,,,0.01,,2013-08-08 21:33:00,
2013-08-08 16:43:00,75.0,69.0,30.04,ENE,70,3.0,8.0,82,0.00,,,0.01,,2013-08-08 21:43:00,
2013-08-08 16:52:00,75.0,69.0,30.04,NE,44,1.0,6.0,82,0.00,,,0.01,,2013-08-08 21:52:00,
2013-08-08 17:04:00,75.0,68.0,30.04,North,5,2.0,6.0,79,0.00,,,0.01,,2013-08-08 22:04:00,
2013-08-08 17:22:00,76.0,69.0,30.04,ENE,73,2.0,4.0,78,0.00,,,0.01,,2013-08-08 22:22:00,
2013-08-08 17:33:00,75.0,68.0,30.03,NE,54,1.0,4.0,80,0.00,,,0.01,,2013-08-08 22:33:00,
2013-08-08 17:47:00,75.0,68.0,30.03,East,90,2.0,6.0,80,0.00,,,0.01,,2013-08-08 22:47:00,
2013-08-08 17:54:00,75.0,68.0,30.03,NE,55,3.0,6.0,80,0.00,,,0.01,,2013-08-08 22:54:00,
2013-08-08 18:04:00,75.0,69.0,30.03,NE,37,2.0,6.0,82,0.00,,,0.01,,2013-08-08 23:04:00,
2013-08-08 18:13:00,75.0,69.0,30.03,NE,51,3.0,8.0,82,0.00,,,0.01,,2013-08-08 23:13:00,
2013-08-08 18:23:00,75.0,69.0,30.03,NNE,25,2.0,6.0,81,0.00,,,0.01,,2013-08-08 23:23:00,
2013-08-08 18:34:00,74.0,68.0,30.03,ENE,69,2.0,8.0,83,0.00,,,0.01,,2013-08-08 23:34:00,
2013-08-08 18:44:00,74.0,68.0,30.03,NE,38,3.0,8.0,82,0.00,,,0.01,,2013-08-08 23:44:00,
2013-08-08 18:53:00,74.0,68.0,30.03,NE,48,2.0,8.0,82,0.00,,,0.01,,2013-08-08 23:53:00,
2013-08-08 19:14:00,73.0,68.0,30.03,NE,53,1.0,5.0,83,0.00,,,0.01,,2013-08-09 00:14:00,
2013-08-08 19:24:00,73.0,68.0,30.03,ENE,63,1.0,5.0,83,0.00,,,0.01,,2013-08-09 00:24:00,
2013-08-08 19:34:00,73.0,68.0,30.03,ENE,73,0.0,4.0,84,0.00,,,0.01,,2013-08-09 00:34:00,
2013-08-08 19:45:00,73.0,68.0,30.03,ENE,76,0.0,4.0,84,0.00,,,0.01,,2013-08-09 00:45:00,
2013-08-08 19:53:00,73.0,68.0,30.03,East,91,0.0,2.0,84,0.00,,,0.01,,2013-08-09 00:53:00,
2013-08-08 20:02:00,73.0,68.0,30.03,East,81,1.0,5.0,84,0.00,,,0.01,,2013-08-09 01:02:00,
2013-08-08 20:13:00,73.0,68.0,30.03,ENE,76,0.0,3.0,85,0.00,,,0.01,,2013-08-09 01:13:00,
2013-08-08 20:23:00,72.0,67.0,30.03,East,91,0.0,0.0,85,0.00,,,0.01,,2013-08-09 01:23:00,
2013-08-08 20:33:00,72.0,68.0,30.03,East,91,0.0,0.0,86,0.00,,,0.01,,2013-08-09 01:33:00,
2013-08-08 20:45:00,72.0,68.0,30.03,East,92,0.0,0.0,87,0.00,,,0.01,,2013-08-09 01:45:00,
2013-08-08 20:55:00,71.0,67.0,30.03,East,92,0.0,0.0,88,0.00,,,0.01,,2013-08-09 01:55:00,
2013-08-08 21:03:00,71.0,67.0,30.03,East,91,0.0,1.0,87,0.00,,,0.01,,2013-08-09 02:03:00,
2013-08-08 21:12:00,71.0,67.0,30.03,East,91,0.0,0.0,87,0.00,,,0.01,,2013-08-09 02:12:00,
2013-08-08 21:23:00,70.0,66.0,30.04,East,91,0.0,0.0,87,0.00,,,0.01,,2013-08-09 02:23:00,
2013-08-08 21:44:00,70.0,66.0,30.04,East,91,0.0,1.0,87,0.00,,,0.01,,2013-08-09 02:44:00,
2013-08-08 21:55:00,70.0,66.0,30.05,East,92,0.0,0.0,87,0.00,,,0.01,,2013-08-09 02:55:00,
2013-08-08 22:04:00,70.0,66.0,30.05,East,92,0.0,0.0,88,0.00,,,0.01,,2013-08-09 03:04:00,
2013-08-08 22:13:00,69.0,66.0,30.06,East,92,0.0,0.0,89,0.00,,,0.01,,2013-08-09 03:13:00,
2013-08-08 22:23:00,69.0,66.0,30.06,East,92,0.0,0.0,90,0.00,,,0.01,,2013-08-09 03:23:00,
2013-08-08 22:34:00,69.0,66.0,30.06,East,92,0.0,0.0,90,0.00,,,0.01,,2013-08-09 03:34:00,
2013-08-08 22:44:00,69.0,66.0,30.06,East,92,0.0,0.0,91,0.00,,,0.01,,2013-08-09 03:44:00,
2013-08-08 22:52:00,68.0,65.0,30.06,East,92,0.0,0.0,91,0.00,,,0.01,,2013-08-09 03:52:00,
2013-08-08 23:01:00,68.0,65.0,30.06,East,92,0.0,0.0,91,0.00,,,0.01,,2013-08-09 04:01:00,
2013-08-08 23:12:00,68.0,65.0,30.06,East,92,0.0,0.0,91,0.00,,,0.01,,2013-08-09 04:12:00,
2013-08-08 23:22:00,68.0,66.0,30.06,East,92,0.0,0.0,92,0.00,,,0.01,,2013-08-09 04:22:00,
2013-08-08 23:33:00,68.0,66.0,30.06,East,92,0.0,0.0,92,0.00,,,0.01,,2013-08-09 04:33:00,
2013-08-08 23:43:00,67.0,65.0,30.06,East,91,0.0,0.0,92,0.00,,,0.01,,2013-08-09 04:43:00,
2013-08-08 23:53:00,67.0,65.0,30.06,East,92,0.0,0.0,93,0.00,,,0.01,,2013-08-09 04:53:00,